Regional Weather Roundup
Issued by NWS

Home | Current Version | Previous Version | Graphics & Text | Print | Product List | Glossary Off
Versions: 1 2 3 4 5 6 7 8 9 10 11 12 13 14 15 16 17 18 19 20 21 22 23 24 25 26 27 28 29 30 31 32 33 34 35 36 37 38 39 40 41 42 43 44 45 46 47 48 49 50

000
ASUS43 KMKX 300200
RWRWI

WISCONSIN REGIONAL WEATHER ROUNDUP
NATIONAL WEATHER SERVICE MILWAUKEE/SULLIVAN WI
900 PM CDT SAT AUG 29 2015

NOTE: "FAIR" INDICATES FEW OR NO CLOUDS BELOW 12,000 FEET WITH NO
SIGNIFICANT WEATHER AND/OR OBSTRUCTIONS TO VISIBILITY.

WIZ001-002-006>008-014>016-023>028-300300-
NORTHWEST WISCONSIN

CITY           SKY/WX    TMP DP  RH WIND       PRES   REMARKS
SUPERIOR ARPT  PTCLDY    68  64  86 CALM      29.98R
ASHLAND        MOCLDY    65  64  97 S5        30.00R
HAYWARD        PTCLDY    66  62  87 SW3       30.02S
SIREN          CLEAR     65  62  90 S5        30.02S
CUMBERLAND     MOCLDY    61  61 100 S5        30.03S
RICE LAKE      MOCLDY    64  60  90 S5        30.05R
CHETEK         MOCLDY    64  62  92 MISG      30.04R
LADYSMITH      PTCLDY    64  61  90 S3        30.06S
EAU CLAIRE     PTCLDY    63  60  90 CALM      30.03S
MENOMONIE      PTCLDY    64  62  94 CALM      30.03S
NEW RICHMOND   CLEAR     63  62  97 CALM      30.03R
OSCEOLA        PTCLDY    64  64 100 CALM      30.05R
$$

WIZ003>005-009-010-017-018-300300-
NORTH CENTRAL WISCONSIN

CITY           SKY/WX    TMP DP  RH WIND       PRES   REMARKS
MANITOWISH WTR PTCLDY    64  63  97 CALM      30.04R
ARBOR VITAE    CLEAR     64  61  89 S5        30.05R
WOODRUFF       CLEAR     64  61  89 S5        30.05R
RHINELANDER    CLEAR     64  60  87 SW6       30.07R
EAGLE RIVER    CLEAR     63  57  81 SW5       30.04S
LAND O LAKES   CLEAR     65  60  82 CALM      30.05R
PHILLIPS       CLEAR     65  62  90 SW5       30.04S
TOMAHAWK       PTCLDY    60  58  93 CALM      30.06S
MEDFORD        CLEAR     58  58  98 S6        30.06S
MERRILL        PTCLDY    62  60  95 CALM      30.07R
$$

WIZ029-030-035-036-043>047-300300-
CENTRAL WISCONSIN

CITY           SKY/WX    TMP DP  RH WIND       PRES   REMARKS
WAUSAU         CLEAR     62  59  90 S5        30.05R
MOSINEE        NOT AVBL
MARSHFIELD     CLOUDY    64  58  80 CALM      30.07R
STEVENS POINT  CLOUDY    62  58  85 CALM      30.07S
WAUPACA        CLOUDY    66  64  93 NW3       30.06R
WAUTOMA        NOT AVBL
WISC RAPIDS    CLOUDY    65  59  81 E6        30.08R
CAMP DOUGLAS   NOT AVBL
$$

WIZ011>013-019>022-031-037>040-048>050-300300-
NORTHEAST WISCONSIN

CITY           SKY/WX    TMP DP  RH WIND       PRES   REMARKS
ANTIGO         CLEAR     57  56  98 S3        30.08R
SHAWANO        CLEAR     62  59  90 CALM      30.06R FOG
OCONTO         CLEAR     60  60 100 CALM      30.05R
STURGEON BAY   CLEAR     61  57  88 S6        30.08R
GREEN BAY      CLOUDY    65  62  90 CALM      30.06R
MANITOWOC      FOG       57  57 100 MISG      30.07R VSB 1/2
APPLETON       CLOUDY    66  61  82 VRB5      30.04R
CLINTONVILLE   PTCLDY    63  59  88 CALM      30.05S
OSHKOSH        CLOUDY    66  63  90 CALM      30.06R
$$

WIZ032>034-041-042-053>061-300300-
SOUTHWEST WISCONSIN

CITY           SKY/WX    TMP DP  RH WIND       PRES   REMARKS
LA CROSSE      CLOUDY    68  60  75 SE7       30.04S
SPARTA         CLOUDY    67  58  74 E3        30.06S
VIROQUA          N/A     65  65  99 CALM      30.06S
BOSCOBEL       CLOUDY    68  64  87 N3        30.05R
PRAIRIE DU CHI CLOUDY    67  61  81 CALM      30.05R
PLATTEVILLE    CLOUDY    67  62  84 NE3       30.06R
$$

WIZ056-057-062-063-064-067-068-300300-
SOUTH CENTRAL WISCONSIN

CITY           SKY/WX    TMP DP  RH WIND       PRES   REMARKS
REEDSBURG      CLOUDY    66  62  87 CALM      30.05R
BARABOO/DELLS  CLOUDY    66  61  85 CALM      30.06R
LONE ROCK      NOT AVBL
MINERAL POINT  CLOUDY    68  63  83 CALM      30.07R
MADISON        CLOUDY    65  62  90 CALM      30.06R
MIDDLETON      CLOUDY    66  65  97 CALM      30.06R
WATERTOWN      CLOUDY    64  64 100 CALM      30.05R
MONROE         CLOUDY    64  63  94 NE3       30.05S
JANESVILLE     CLOUDY    66  64  94 CALM      30.04R
$$

WIZ051-052-058>065-066-070>072-300300-
SOUTHEAST WISCONSIN

CITY           SKY/WX    TMP DP  RH WIND       PRES   REMARKS
MILWAUKEE      DRZL/FOG  62  61  96 N7        30.04S VSB 1/2
WAUKESHA       CLOUDY    61  61 100 N3        30.06S FOG
MILWAUKEE/TIMM CLOUDY    63  59  88 N5        30.06R FOG
RACINE         CLOUDY    62  60  93 N9        30.06R FOG
BURLINGTON     CLOUDY    62  61  97 CALM      30.05R FOG
KENOSHA        FOG       63  62  97 N5        30.04R VSB 1/2
FOND DU LAC    CLOUDY    66  64  93 SE3       30.06R
SHEBOYGAN      CLOUDY    63  62  97 CALM      30.07R
WEST BEND      CLOUDY    63  59  88 CALM      30.06R
JUNEAU         CLOUDY    64  62  91 E3        30.07R
$$

LSZ147-162-300300-
LAKE SUPERIOR

STATION/POSITION TIME  TEMP    WIND        PRES    WAVE
                       AIR SEA DIR/SP/G            HT/PER
                 (UTC) (F)     (DEG/KT/KT) (MB)    (FT/S)
W MID LAKE BUOY  0050   59 55  210/  8/  8 1014.6S   1/ 4
DEVILS ISLAND    0100   67     210/  8/  9 1014.8R
PORT WING        0140   69     160/  2/  3 1015.2R
SAXON HARBOR     0140   66      CALM  /  3 1014.9S
$$

LMZ867-665-643>646-300300-
LAKE MICHIGAN

STATION/POSITION TIME  TEMP    WIND        PRES    WAVE
                       AIR SEA DIR/SP/G            HT/PER
                 (UTC) (F)     (DEG/KT/KT) (MB)    (FT/S)
CHAMBERS ISLAND  0100   64     170/  3/  6 1016.9R
S GREEN BAY BUOY 0100   64 63  120/  4/  6 1018.4
N MID LAKE BUOY  0050   64 65  210/  8/  8 1016.7F   1
NORTHPORT PIER   0100   63     180/  1/ 13 1016.9R
SISTER BAY       0104   63     150/  7/  8   N/A
ALGOMA LAKESHORE 0114             CALM       N/A
SHEBOYGAN LAKESH 0100   59     170/  2/  3 1017.8R
PORT WASHINGTON  0100   61      20/  2/  5 1017.9S
ATWATER BUOY     0100   52 49  350/  8/ 10 1018.7R
MILWAUKEE LAKESH 0100   61     350/  5/  6   N/A
S MID LAKE BUOY  0050   68 68  140/  4/  6 1016.1R   1/ 3
KENOSHA   LAKESH 0100   63     360/  7/  8 1016.6R
$$

TC  - TEMPERATURE IN CELSIUS
VSB - VISIBILITY IN STATUTE MILES
WCI - WIND CHILL INDEX
HX  - HEAT INDEX



USA.gov is the U.S. government's official web portal to all federal, state and local government web resources and services.